Location: Mat�lon
(46.2791°N, 7.1028°E)
Time: 19:00:27
(UTC+00:00)

Tiangong - Pass Details

Date: 02 October 2021
Orbit: 382 x 384 km, 41.5° (Epoch: 20 October)

Event Time Altitude Azimuth Distance (km) Brightness Sun altitude
Exits shadow 02:52:47 11° 109° (ESE) 1,369 4.4 -27.5°
Drops below altitude 10° 02:52:52 10° 108° (ESE) 1,397 4.4 -27.5°
Sets 02:55:08 0° 95° (E) 2,250 5.8 -27.1°
